Theta_e
289 288 287 287 287 287 287 287 288 288 288 287 288 288 288 289 289 290 290 289 289 288 288 288 287 287 285 285 285 285 286 287 286 283 284 283 281 280 280 281 281 280 281
289 287 286 285 285 284 285 285 286 286 286 286 286 286 286 287 288 288 287 287 286 286 286 285 284 284 283 283 283 282 282 283 284 281 281 281 281 279 279 279 279 279 280
287 286 285 284 283 283 284 284 284 284 285 285 285 285 285 286 286 287 286 286 285 285 284 283 282 282 281 281 281 281 281 281 282 282 280 280 279 278 278 278 278 278 278
286 285 285 285 284 283 283 283 283 283 284 284 284 284 285 285 286 285 285 284 283 283 283 282 281 281 280 280 280 280 280 280 280 279 277 277 277 277 277 275 276 277 276
285 285 285 285 283 282 282 282 282 282 283 283 283 283 283 284 284 284 284 283 281 280 280 280 281 280 280 280 279 279 279 279 278 277 276 276 275 275 273 274 274 274 275
284 285 285 283 282 282 282 281 281 281 282 282 282 282 282 283 285 286 283 281 280 279 278 279 280 281 281 281 281 280 279 277 276 276 274 274 272 273 273 273 271 271 272
284 284 283 282 281 281 281 280 280 280 280 280 281 281 281 281 285 286 284 281 279 279 278 278 278 279 279 281 281 280 279 278 276 275 273 272 272 271 272 270 269 269 270
283 282 282 281 280 280 279 279 279 279 279 280 280 280 280 281 286 286 283 280 279 278 278 278 277 277 278 277 276 274 273 273 273 273 273 272 272 272 271 269 268 267 267
282 282 281 280 279 278 278 278 278 278 278 279 280 280 280 281 286 285 281 279 278 277 276 277 277 277 278 278 275 273 272 271 274 276 275 275 274 273 270 267 264 264 265
281 282 281 280 279 278 278 278 278 279 278 279 279 280 280 281 285 285 281 278 276 276 276 276 278 277 278 278 275 273 270 269 268 268 269 269 268 269 268 267 266 262 262
280 279 278 278 278 279 278 278 278 278 278 278 278 278 279 280 283 284 282 278 277 275 274 274 276 279 277 276 275 273 271 269 268 266 266 265 265 265 265 265 265 264 263
277 277 276 276 277 278 278 278 278 278 277 277 277 276 278 279 281 284 283 279 278 275 274 275 276 278 277 276 273 273 271 266 265 264 264 264 263 263 263 263 263 263 264
273 273 273 273 275 276 275 276 276 277 276 276 276 275 275 277 279 283 283 281 279 275 274 274 277 278 276 274 274 272 266 265 264 262 263 262 262 262 262 262 261 261 261
271 271 272 272 273 273 276 276 276 276 276 276 275 275 274 275 276 279 279 279 278 274 275 274 276 273 271 270 270 266 265 264 264 263 262 261 262 261 260 260 259 259 258
270 270 271 272 271 272 274 274 275 276 277 276 275 275 273 273 276 278 277 275 272 272 271 272 269 267 265 264 263 263 262 262 261 261 260 259 259 259 259 258 257 256 256
268 270 270 271 272 272 272 274 279 279 279 280 279 277 275 277 279 280 278 276 275 274 267 265 265 264 263 262 262 261 261 260 260 259 258 258 258 257 257 256 256 254 254
266 268 270 270 271 272 272 272 272 276 279 281 281 280 278 278 279 280 279 278 277 271 263 264 263 263 263 263 262 261 260 259 259 258 257 256 256 255 254 253 254 254 253
262 264 267 268 269 270 271 271 272 272 273 275 279 279 279 278 279 279 279 277 272 265 263 262 262 263 262 261 261 260 259 257 257 256 255 254 253 253 252 252 252 250 251
261 262 262 263 264 268 269 270 271 271 270 270 273 273 271 278 279 279 279 269 263 262 261 261 261 261 260 260 259 258 257 256 255 253 252 252 251 250 249 250 250 248 249
257 262 261 260 260 264 266 266 267 267 267 268 267 266 267 272 268 263 264 265 263 262 260 260 259 259 258 258 257 256 254 253 252 251 250 250 249 248 249 248 248 249 248
255 257 261 260 260 261 263 264 265 265 265 264 264 265 269 265 263 262 261 261 261 261 259 259 258 257 256 255 254 253 252 252 250 249 249 248 246 246 246 248 248 247 247
255 255 258 258 261 260 262 263 264 264 263 263 262 264 270 264 263 262 261 260 259 259 259 258 257 256 255 253 252 251 251 250 249 248 248 246 245 245 245 246 246 247 247
254 254 256 257 258 261 261 261 262 262 262 262 262 262 262 262 262 261 260 259 258 256 255 255 254 252 251 251 251 251 251 250 249 248 247 246 245 246 245 246 246 245 246
254 255 256 258 258 259 259 260 260 261 261 261 260 260 260 259 259 259 258 256 254 253 251 251 251 251 249 248 248 247 248 248 247 247 247 247 247 246 245 245 245 245 246
257 258 258 258 258 258 259 259 259 258 258 258 257 256 255 255 254 253 252 251 249 249 248 247 248 248 249 248 247 246 246 251 247 246 246 246 246 245 244 245 246 246 246
257 257 256 255 255 254 253 253 253 253 253 253 253 253 253 252 252 251 249 248 247 248 248 248 248 248 248 248 248 248 248 250 248 248 246 246 245 246 244 244 245 245 247
Wind_Speed
5 5 6 6 5 4 4 5 4 3 4 4 3 3 4 4 4 4 4 5 6 5 4 5 5 4 3 3 3 3 3 1 5 3 3 4 4 5 5 5 5 6 4
7 6 6 5 6 6 6 5 4 5 4 5 4 5 5 5 4 5 6 5 6 7 6 6 6 5 5 4 3 5 4 3 3 7 3 3 3 4 4 4 4 4 3
6 7 7 9 8 9 8 7 6 6 6 5 5 6 6 6 6 6 6 6 6 6 7 7 7 7 6 4 4 4 4 4 4 5 5 2 3 4 2 3 5 5 4
6 7 9 11 10 8 7 6 7 7 7 8 7 7 7 7 7 6 6 7 7 6 6 6 6 7 8 7 6 5 5 5 6 6 5 4 3 4 3 3 3 3 4
8 9 13 11 10 9 9 8 7 7 8 7 7 6 6 6 5 7 8 8 9 8 7 7 6 6 8 6 5 6 6 5 5 5 5 3 3 2 2 2 3 5 1
8 11 9 9 8 9 9 8 8 8 7 6 6 6 7 5 9 12 9 9 9 10 10 8 8 7 10 11 11 9 6 6 6 4 3 4 5 3 1 1 2 3 1
7 8 6 6 8 8 8 8 9 9 7 8 8 8 8 7 13 14 13 7 9 9 10 10 9 5 7 9 13 15 14 12 7 5 8 5 6 3 2 2 2 1 2
8 7 6 7 9 6 8 10 9 8 9 9 9 9 9 8 17 18 16 10 8 9 8 8 8 10 10 9 9 10 10 9 8 6 8 8 5 5 2 3 2 3 1
8 9 7 7 8 8 10 10 9 8 8 9 8 10 11 10 20 20 16 11 11 11 10 9 9 8 10 12 10 10 10 10 10 13 13 13 11 10 5 4 3 3 2
9 10 7 7 9 10 11 11 9 8 8 7 8 9 11 10 20 21 15 7 10 8 10 11 11 10 12 10 6 9 9 8 8 7 8 9 7 9 9 7 4 4 2
9 9 7 6 8 9 7 7 9 13 10 10 8 7 9 11 13 21 19 9 8 9 8 8 8 16 14 12 9 5 6 8 9 7 6 5 5 5 4 6 5 4 2
10 9 8 6 6 4 7 7 7 8 9 14 15 11 8 7 11 20 21 13 13 9 10 7 9 18 16 15 10 15 14 9 5 5 5 4 4 4 4 4 5 4 2
9 9 7 5 4 3 5 6 6 8 8 7 8 9 8 8 8 18 20 18 16 9 8 12 16 18 17 11 15 16 9 5 4 4 4 4 3 3 4 3 4 4 2
9 9 6 5 5 4 5 5 7 7 7 7 8 7 6 7 8 8 6 9 15 10 16 11 12 15 14 11 10 8 5 5 4 4 4 3 3 3 4 3 2 4 2
8 7 6 6 5 5 6 5 7 6 9 7 7 7 8 9 9 13 12 9 9 10 9 6 7 7 7 6 5 5 5 5 4 3 3 3 3 3 3 3 3 2 2
8 5 6 6 5 5 5 6 13 14 14 17 15 11 8 13 19 22 23 23 22 22 6 6 7 7 6 7 6 6 5 5 4 4 3 2 3 3 3 2 2 1 1
7 8 6 6 5 5 4 5 5 5 11 17 15 17 16 14 23 25 24 23 23 18 5 5 6 7 7 6 6 6 6 5 6 4 3 3 3 2 2 1 1 0 1
6 6 3 3 4 3 4 4 3 3 4 4 10 10 15 17 21 23 22 21 12 7 5 7 7 7 6 6 7 6 6 6 5 4 4 3 3 2 2 2 2 2 1
4 3 3 3 3 3 3 3 3 1 1 1 3 4 4 13 17 21 23 7 9 7 5 4 4 5 6 5 6 6 6 6 5 5 3 3 3 3 3 3 3 3 1
5 6 4 3 3 3 2 1 1 1 2 2 3 2 2 1 4 3 5 7 8 6 5 5 4 5 5 6 5 5 5 5 5 4 4 4 3 3 4 4 3 3 3
3 4 6 3 3 2 2 2 1 2 3 3 3 1 4 5 5 4 4 4 4 5 5 5 5 5 5 5 5 5 5 5 5 5 4 4 4 4 5 4 3 4 4
3 3 3 2 2 2 1 1 1 2 3 3 2 1 6 3 3 4 3 3 3 3 3 4 5 5 5 6 6 5 5 5 5 5 5 4 4 4 3 3 4 4 5
2 3 3 2 2 2 1 1 0 0 1 2 2 2 1 2 3 3 3 4 3 4 3 4 4 4 3 4 4 5 6 6 6 5 5 5 5 5 5 5 5 4 5
2 3 3 2 2 2 1 1 0 1 1 2 2 3 3 3 3 3 3 3 3 3 3 4 4 5 4 4 4 4 4 3 4 5 6 5 5 6 5 5 5 5 5
2 3 3 3 3 3 3 2 2 2 2 2 2 2 1 2 3 3 2 2 2 3 4 4 3 5 7 8 7 8 8 10 7 7 5 6 7 7 4 4 4 5 6
3 3 3 3 3 3 3 3 3 3 3 3 3 3 3 3 3 3 3 4 3 3 4 3 5 8 8 7 8 9 9 11 9 10 7 6 6 5 5 7 7 6 7
Wind_Direction
219 229 232 233 233 235 235 240 234 243 242 238 232 231 226 210 204 189 175 161 156 150 142 140 123 122 105 87 85 89 100 90 123 117 106 124 102 64 51 37 28 32 40
221 220 230 238 223 225 230 230 223 232 224 222 222 225 224 221 205 189 177 172 167 163 150 140 133 124 107 94 88 84 85 55 122 136 122 120 92 67 60 41 18 22 14
211 215 223 232 223 223 221 218 210 210 217 213 207 213 220 213 200 193 179 171 168 162 158 155 146 142 129 116 100 95 85 78 80 129 124 105 93 52 25 3 4 2 6
220 225 236 237 231 227 224 220 215 207 208 210 210 214 214 205 200 187 172 161 151 141 137 136 143 147 147 140 125 117 110 96 87 100 91 108 90 71 61 2 341 358 1
229 225 234 231 216 209 211 212 210 213 217 209 210 217 215 209 201 180 169 160 148 136 129 127 126 124 127 135 136 135 134 120 107 102 105 113 90 80 45 355 308 332 106
226 236 237 224 225 225 227 216 205 209 207 201 208 205 209 215 205 190 166 165 162 154 144 129 124 127 133 131 125 122 130 139 134 129 131 130 117 122 118 346 336 335 48
258 254 238 222 227 225 213 202 211 210 193 198 197 198 204 199 201 191 178 165 162 164 158 153 140 125 127 131 114 98 82 78 81 118 131 124 134 135 179 140 39 331 321
273 264 236 217 230 213 201 210 211 196 201 203 200 196 195 199 203 188 175 163 155 154 157 160 152 152 150 138 131 115 100 83 77 83 98 104 99 90 77 80 47 311 325
294 282 264 235 226 201 211 216 209 197 200 205 204 199 203 199 195 187 172 162 157 150 145 146 149 151 167 164 152 138 123 106 89 106 107 103 98 82 99 117 72 40 92
303 291 271 239 235 235 214 196 190 198 208 203 213 207 203 198 199 190 178 170 156 151 147 142 143 149 154 166 170 157 147 140 135 119 113 101 96 79 63 71 86 73 51
302 290 275 245 237 238 235 224 206 182 177 182 208 208 200 199 199 193 183 185 164 155 152 156 161 149 149 151 158 166 148 132 132 127 124 116 105 93 76 66 65 73 70
305 296 283 257 242 241 224 216 216 231 229 185 176 177 194 202 203 200 189 185 171 159 153 148 153 154 146 141 135 120 124 121 126 134 130 125 121 100 85 90 67 40 320
310 299 292 282 255 207 214 226 229 217 206 222 211 184 177 176 181 209 191 181 176 159 146 153 160 153 144 140 136 124 122 129 133 133 132 111 108 114 99 92 58 358 325
313 308 301 286 279 260 230 220 217 218 224 210 195 201 174 175 172 190 177 159 158 151 154 158 163 129 128 128 123 128 131 128 137 141 137 133 125 111 96 65 69 3 3
319 309 300 290 278 266 254 235 227 230 219 209 199 187 166 184 184 172 162 147 139 145 136 138 125 128 129 129 123 127 120 121 127 140 140 141 129 118 109 72 77 52 25
321 322 300 288 273 265 256 259 255 242 233 233 212 186 191 195 184 173 166 158 157 148 132 140 143 145 158 161 158 143 142 145 149 150 152 162 138 130 120 88 77 55 348
318 313 305 286 280 271 263 256 254 262 240 243 224 205 193 193 193 184 173 165 162 142 132 142 154 165 172 168 161 164 163 162 147 160 165 173 150 133 140 142 128 276 263
309 304 313 310 306 298 288 279 271 250 241 227 214 197 197 204 197 186 178 164 150 126 136 153 157 170 163 171 164 165 154 151 159 155 178 175 165 164 170 193 208 208 313
321 321 322 309 301 299 287 278 272 240 124 131 111 92 360 205 200 184 188 137 140 135 130 137 147 157 169 169 168 158 155 158 156 152 183 188 181 168 202 225 227 218 224
327 335 353 333 347 349 335 346 331 117 101 76 89 75 357 313 85 69 67 127 126 125 137 149 166 179 170 176 166 153 148 152 151 168 192 194 188 189 217 217 220 227 218
319 329 336 344 3 5 7 20 54 86 89 76 78 76 116 91 99 98 102 91 111 134 151 161 167 175 179 171 158 162 166 166 176 185 188 195 170 197 217 227 223 227 257
333 318 326 325 321 2 23 36 71 102 111 124 106 317 117 84 103 117 128 138 132 127 136 160 174 188 182 177 177 178 179 186 190 193 199 197 195 205 205 215 223 230 235
336 321 327 328 333 354 21 41 32 140 153 150 173 203 113 149 162 163 169 162 162 167 163 178 178 179 178 187 183 183 185 196 193 179 190 195 199 209 201 221 212 226 233
295 295 298 306 319 316 308 279 285 247 214 199 199 202 202 185 192 198 184 164 166 170 178 181 187 187 181 195 201 208 216 195 178 182 177 187 207 205 206 216 221 227 248
291 295 296 291 286 286 288 280 270 272 265 252 234 230 235 219 211 213 198 192 191 191 201 198 199 205 210 206 208 211 214 226 187 183 186 199 216 203 197 212 220 233 236
259 275 282 293 279 276 262 254 252 245 243 244 237 232 228 227 231 228 213 206 208 217 219 209 213 215 217 224 224 221 216 218 209 190 185 194 209 218 198 220 222 232 237